Other Public Products
Issued by NWS Grand Forks, ND

Home | Current Version | Previous Version | Graphics & Text | Print | Product List | Glossary On
Versions: 1 2 3 4 5 6 7 8 9 10 11 12 13 14 15 16 17 18 19 20 21 22 23 24 25 26 27 28 29 30 31 32 33 34 35 36 37 38 39 40 41 42 43 44 45 46 47 48 49 50
000
FPUS83 KFGF 161831
OPUFGF
PRAIRIE TO PINES WEATHER ROUNDUP
NATIONAL WEATHER SERVICE EASTERN NORTH DAKOTA/GRAND FORKS ND
100 PM CDT TUE SEP 16 2014

 **SATELLITE DATA USED TO AUGMENT SKY COVER AT AUTOMATED STATIONS**
 *****  WEATHER ACROSS EASTERN NORTH DAKOTA  *****

CITY           SKY/WX    TMP DP  RH WIND       PRES   REMARKS
GRAND FORKS    MOSUNNY   71  44  37 W10       29.99F
6HR MIN TEMP:  42; 6HR MAX TEMP:  71;

GRAND FORKS AF SUNNY     72  46  39 SW10      30.00F
GRAND CITY NWS   N/A     72 N/A N/A W6          N/A
BUXTON           N/A     72  43  35 SW9         N/A
DEVILS LAKE    SUNNY     66  43  42 SW6       29.98F
6HR MIN TEMP:  50; 6HR MAX TEMP:  66;

FARGO          SUNNY     68  44  42 S9        30.03F
6HR MIN TEMP:  43; 6HR MAX TEMP:  68;

WAHPETON ARPT  CLEAR     70  34  26 S12       30.03F
$$

 *****  WEATHER ACROSS CENTRAL AND WESTERN NORTH DAKOTA  *****

CITY           SKY/WX    TMP DP  RH WIND       PRES   REMARKS
JAMESTOWN      SUNNY     66  46  48 S10       30.00F
6HR MIN TEMP:  37; 6HR MAX TEMP:  66;

BISMARCK       SUNNY     67  46  47 SE3       30.00F
6HR MIN TEMP:  40; 6HR MAX TEMP:  68;

MINOT          SUNNY     69  43  38 NE7       29.98F
6HR MIN TEMP:  47; 6HR MAX TEMP:  69;

MINOT AFB      SUNNY     68  41  36 NE6       29.97F
6HR MIN TEMP:  41; 6HR MAX TEMP:  69;

GARRISON         N/A     64  47  53 S6        29.99F
6HR MIN TEMP:  43; 6HR MAX TEMP:  64;

WILLISTON      SUNNY     69  36  29 E3        29.99F
6HR MIN TEMP:  33; 6HR MAX TEMP:  70;

DICKINSON      SUNNY     69  48  47 NE5       29.97F
6HR MIN TEMP:  37; 6HR MAX TEMP:  69;

HETTINGER      SUNNY     70  46  42 VRB3      29.99F
6HR MIN TEMP:  33; 6HR MAX TEMP:  70;

$$

 *****  OTHER OBSERVATIONS NORTHEAST NORTH DAKOTA  *****

CITY           SKY/WX    TMP DP  RH WIND       PRES   REMARKS
WALHALLA       CLOUDY    70  39  32 N7        29.97F
LANGDON        FAIR      73  37  27 W6        29.98F
CAVALIER       FAIR      72  43  35 NW7       29.97S
GRAFTON        FAIR      70  45  40 E3        29.97F
CANDO          FAIR      72  37  28 SW6       29.98F
FORT TOTTEN      N/A     71  46  41 NW3       29.95S
ROLLA            N/A     70  39  32 W7        29.99F
RUGBY          FAIR      68  45  42 W5        29.98F
 ***** THE ABOVE OBSERVATIONS ARE NON NWS ARE NOT QUALITY
        CONTROLLED AND MAY MIS-REPORT RAIN FOR SNOW...
$$

 *****  OTHER OBSERVATIONS SOUTHEAST NORTH DAKOTA *****

CITY           SKY/WX    TMP DP  RH WIND       PRES   REMARKS
COOPERSTOWN    NOT AVBL
VALLEY CITY    FAIR      66  43  42 S10       30.01F
OAKES            N/A     68  46  45 SE14G20   30.00F
GWINNER        CLEAR     70  46  43 S12       30.02F
SHEYENNE NWR     N/A     71  44  37 S6        29.95
BUFFALO          N/A     69  38  31 S9          N/A
WYNDMERE         N/A     72  41  33 S6          N/A
 ***** THE ABOVE OBSERVATIONS ARE NON NWS ARE NOT QUALITY
       CONTROLLED AND MAY MIS-REPORT RAIN FOR SNOW...
$$

  *****  WEATHER ACROSS NORTHERN MINNESOTA  *****

CITY           SKY/WX    TMP DP  RH WIND       PRES   REMARKS
FLAG ISLAND    MOSUNNY   59  48  67 S5        29.98R
WARROAD        MOSUNNY   55  46  71 W5        30.00S
ROSEAU         CLOUDY    57  46  67 CALM      30.00S
HALLOCK        MOSUNNY   64  45  48 N6        29.98F
THF RVR FALLS  SUNNY     64  43  45 SW6       30.01F
6HR MIN TEMP:  43; 6HR MAX TEMP:  64;

HALSTAD          N/A     70  39  33 S6          N/A
FOSSTON        SUNNY     68  45  42 SW9       30.03F
BAUDETTE       CLOUDY    57  44  62 SW7       30.00S
6HR MIN TEMP:  48; 6HR MAX TEMP:  57;

WASKISH        PTSUNNY   61  48  63 CALM      30.01F
CROOKSTON      SUNNY     70  45  40 SW8       30.01F
$$
  *****  WEATHER ACROSS CENTRAL AND WEST MINNESOTA  *****

CITY           SKY/WX    TMP DP  RH WIND       PRES   REMARKS
BEMIDJI        SUNNY     67  41  38 W12G20    30.02F
PARK RAPIDS    SUNNY     66  39  37 W9        30.05F
6HR MIN TEMP:  41; 6HR MAX TEMP:  66;

WADENA         SUNNY     64  39  39 SW10      30.07S
DETROIT LAKES  SUNNY     64  41  42 S8        30.06F
MOORHEAD       SUNNY     68  39  34 S8        30.04F
FERGUS FALLS   SUNNY     66  34  30 S6        30.05F
ELBOW LAKE     FAIR      65  40  39 S7        30.06F
6HR MIN TEMP:  37; 6HR MAX TEMP:  66;

MORRIS MN      SUNNY     68  43  40 S9        30.06F
STAPLES        SUNNY     66  37  34 SW7       30.07F
WHEATON        SUNNY     66  43  42 S6        30.05F
$$
  *****  WEATHER ELSEWHERE ACROSS MINNESOTA  *****

CITY           SKY/WX    TMP DP  RH WIND       PRES   REMARKS
DULUTH         MOSUNNY   66  41  40 W18G24    30.03F
6HR MIN TEMP:  44; 6HR MAX TEMP:  67;

INTRNTL FALLS  CLOUDY    56  45  66 NW9       30.00R
6HR MIN TEMP:  42; 6HR MAX TEMP:  58;

ELY            PTSUNNY   64  43  45 W13G20    29.98S
CLOQUET        SUNNY     66  37  34 SW13      30.05F
BRAINERD       SUNNY     64  41  42 SW10      30.08F
6HR MIN TEMP:  36; 6HR MAX TEMP:  64;

HIBBING        MOSUNNY   65  42  43 W10G18    30.02F
6HR MIN TEMP:  35; 6HR MAX TEMP:  66;

ALEXANDRIA     SUNNY     64  40  41 SW10      30.10F
6HR MIN TEMP:  42; 6HR MAX TEMP:  64;

SAINT CLOUD    SUNNY     67  41  38 S8G17     30.10F
6HR MIN TEMP:  38; 6HR MAX TEMP:  67;

MINNEAPOLIS    SUNNY     64  41  42 SW12      30.13F
6HR MIN TEMP:  43; 6HR MAX TEMP:  64;

$$

  *****  WEATHER ACROSS SOUTH DAKOTA  *****

CITY           SKY/WX    TMP DP  RH WIND       PRES   REMARKS
SIOUX FALLS    MOSUNNY   65  46  50 S14       30.09F
6HR MIN TEMP:  40; 6HR MAX TEMP:  65;

BROOKINGS      NOT AVBL
WATERTOWN      MOSUNNY   65  46  50 S15G22    30.04F
6HR MIN TEMP:  37; 6HR MAX TEMP:  65;

HURON          SUNNY     67  48  50 S14       30.02F
6HR MIN TEMP:  39; 6HR MAX TEMP:  67;

SISSETON         N/A     70  45  40 S13G20    30.02F
ABERDEEN       SUNNY     64  47  53 S12       30.01F
6HR MIN TEMP:  33; 6HR MAX TEMP:  64;

MITCHELL       MOSUNNY   68  50  52 S15G25    30.04F
PIERRE         SUNNY     69  50  50 CALM      29.97F
6HR MIN TEMP:  46; 6HR MAX TEMP:  69;

MOBRIDGE       SUNNY     66  48  52 VRB3      29.97F
RAPID CITY     SUNNY     77  46  33 SW3       30.02F
6HR MIN TEMP:  40; 6HR MAX TEMP:  77;

$$

  *****  SOME WEATHER IN NEARBY STATES *****

CITY           SKY/WX    TMP DP  RH WIND       PRES   REMARKS
GLASGOW MT     MOSUNNY   68  41  37 SE8       29.97F
6HR MIN TEMP:  44; 6HR MAX TEMP:  68;

GREAT FALLS MT MOSUNNY   72  39  30 SW7       29.99S
6HR MIN TEMP:  41; 6HR MAX TEMP:  72;

CHEYENNE WY    SUNNY     78  27  15 N16G28    30.21S
6HR MIN TEMP:  57; 6HR MAX TEMP:  78;

SCOTTSBLUFF NE SUNNY     74  52  46 W10       30.07F
6HR MIN TEMP:  46; 6HR MAX TEMP:  75;

OMAHA NE       SUNNY     63  46  54 S9        30.18F
6HR MIN TEMP:  45; 6HR MAX TEMP:  63;

DES MOINES IA  MOSUNNY   65  45  48 S7        30.19F
6HR MIN TEMP:  44; 6HR MAX TEMP:  65;

DAVENPORT IA   SUNNY     63  40  42 VRB3      30.20F
6HR MIN TEMP:  38; 6HR MAX TEMP:  63;

CHICAGO IL     MOSUNNY   63  39  41 NW6       30.17F
6HR MIN TEMP:  45; 6HR MAX TEMP:  63;

EAU CLAIRE WI  SUNNY     64  40  41 VRB7      30.13F
6HR MIN TEMP:  37; 6HR MAX TEMP:  64;

LA CROSSE WI   SUNNY     65  42  43 W8        30.16F
6HR MIN TEMP:  44; 6HR MAX TEMP:  65;

$$

  *****  SOME NATIONAL WEATHER *****

CITY           SKY/WX    TMP DP  RH WIND       PRES   REMARKS


USA.gov is the U.S. government's official web portal to all federal, state and local government web resources and services.